GW0552 Weather Reports


time (UTC)temp
C
wind
direction
speed
KPH
gust
KPH
rain 1hr
cm
rain 24hr
cm
rain mn
cm
humidity
%
barometer
mb
20260902104120 20 120 0.0 0.0 0.00 0.00 0.00 99 1015.1
20260902103619 20 121 0.0 0.0 0.00 0.00 0.00 99 1015.3
20260902103115 20 121 0.0 0.0 0.00 0.00 0.00 99 1015.3
20260902102611 20 121 0.0 0.0 0.00 0.00 0.00 99 1015.2
20260902102108 20 122 0.0 0.0 0.00 0.00 0.00 99 1015.3
20260902101603 20 121 0.0 0.0 0.00 0.00 0.00 99 1015.3
20260902101102 20 121 0.0 0.0 0.00 0.00 0.00 99 1014.9
20260902100551 20 121 0.0 0.0 0.00 0.00 0.00 99 1015.1
20260902100046 20 122 0.0 0.0 0.00 0.00 0.00 99 1014.9
20260902095546 20 124 0.0 0.0 0.00 0.00 0.00 99 1015.1
20260902095045 20 122 0.0 0.0 0.00 0.00 0.00 99 1015.0
20260902094541 20 122 0.0 0.0 0.00 0.00 0.00 99 1015.0
20260902094036 20 123 0.0 0.0 0.00 0.00 0.00 99 1015.1
20260902093531 20 122 0.0 0.0 0.00 0.00 0.00 99 1015.0
20260902093031 20 122 0.0 0.0 0.00 0.00 0.00 99 1014.8
20260902092526 20 121 0.0 0.0 0.00 0.00 0.00 99 1015.0
20260902092021 20 122 0.0 0.0 0.00 0.00 0.00 99 1014.9
20260902091516 20 121 0.0 0.0 0.00 0.00 0.00 99 1015.1
20260902091012 20 121 0.0 0.0 0.00 0.00 0.00 99 1015.0
20260902090508 20 121 0.0 0.0 0.00 0.00 0.00 99 1015.0
20260902090006 20 121 0.0 0.0 0.00 0.00 0.00 99 1015.1
20260902085501 20 119 0.0 0.0 0.00 0.00 0.00 99 1015.1
20260902084956 20 121 0.0 0.0 0.00 0.00 0.00 99 1014.7
20260902084453 21 122 0.0 0.0 0.00 0.00 0.00 99 1014.6
20260902083948 21 121 0.0 0.0 0.00 0.00 0.00 99 1014.9
20260902083448 21 119 0.0 0.0 0.00 0.00 0.00 99 1014.7
20260902082943 21 122 0.0 0.0 0.00 0.00 0.00 99 1014.6
20260902082438 21 121 0.0 0.0 0.00 0.00 0.00 99 1014.6
20260902081935 21 124 0.0 0.0 0.00 0.00 0.00 99 1014.6
20260902081431 21 136 0.0 0.0 0.00 0.00 0.00 99 1014.6
20260902080926 21 123 0.0 0.0 0.00 0.00 0.00 99 1014.6
20260902080422 21 122 0.0 0.0 0.00 0.00 0.00 99 1014.8
20260902075921 21 121 0.0 0.0 0.00 0.00 0.00 99 1014.4
20260902075418 21 121 0.0 0.0 0.00 0.00 0.00 99 1014.6
20260902074913 21 121 0.0 0.0 0.00 0.00 0.00 99 1014.6
20260902074409 21 122 0.0 0.0 0.00 0.00 0.00 99 1014.6
20260902073903 21 121 0.0 0.0 0.00 0.00 0.00 99 1014.7
20260902073400 21 119 0.0 0.0 0.00 0.00 0.00 99 1014.5
20260902072855 21 121 0.0 0.0 0.00 0.00 0.00 99 1014.6
20260902072351 21 121 0.0 0.0 0.00 0.00 0.00 99 1014.5
20260902071847 21 121 0.0 0.0 0.00 0.00 0.00 99 1014.5
20260902071347 21 121 0.0 0.0 0.00 0.00 0.00 99 1014.4
20260902070843 21 121 0.0 0.0 0.00 0.00 0.00 99 1014.5
20260902070338 21 128 0.0 0.0 0.00 0.00 0.00 99 1014.6
20260902065836 21 122 0.0 0.0 0.00 0.00 0.00 99 1014.5
20260902065332 21 121 0.0 0.0 0.00 0.00 0.00 99 1014.4
20260902064827 21 120 0.0 0.0 0.00 0.00 0.00 99 1014.3
20260902064324 21 125 0.0 0.0 0.00 0.00 0.00 99 1014.3
20260902063819 21 123 0.0 0.0 0.00 0.00 0.00 99 1014.2
20260902063319 21 121 0.0 0.0 0.00 0.00 0.00 99 1014.4
20260902062818 21 121 0.0 0.0 0.00 0.00 0.00 99 1014.4
20260902062249 21 122 0.0 0.0 0.00 0.00 0.00 99 1014.4
20260902061748 21 122 0.0 0.0 0.00 0.00 0.00 99 1014.4
20260902061238 21 122 0.0 0.0 0.00 0.00 0.00 99 1014.4
20260902060735 21 122 0.0 0.0 0.00 0.00 0.00 99 1014.4
20260902060231 21 122 0.0 0.0 0.00 0.00 0.00 99 1014.6
20260902055726 21 122 0.0 0.0 0.00 0.00 0.00 99 1014.4
20260902055222 22 120 0.0 0.0 0.00 0.00 0.00 99 1014.3
20260902054717 22 120 0.0 0.0 0.00 0.00 0.00 99 1014.3
20260902054213 22 120 0.0 0.0 0.00 0.00 0.00 99 1014.2
20260902053708 22 120 0.0 0.0 0.00 0.00 0.00 99 1014.2
20260902053207 22 121 0.0 0.0 0.00 0.00 0.00 99 1014.2
20260902052707 22 128 0.0 0.0 0.00 0.00 0.00 99 1014.3
20260902052202 22 128 0.0 0.0 0.00 0.00 0.00 99 1014.1
20260902051701 22 124 0.0 0.0 0.00 0.00 0.00 99 1014.2
20260902051157 22 126 0.0 0.0 0.00 0.00 0.00 99 1014.3
20260902050657 22 127 1.6 1.6 0.00 0.00 0.00 99 1014.0
20260902050152 22 124 1.6 1.6 0.00 0.00 0.00 99 1014.2
20260902045647 22 123 1.6 1.6 0.00 0.00 0.00 99 1014.2
20260902045143 22 122 0.0 0.0 0.00 0.00 0.00 99 1014.3
20260902044638 22 124 0.0 0.0 0.00 0.00 0.00 99 1014.3
20260902044134 22 124 0.0 0.0 0.00 0.00 0.00 99 1014.4
20260902043629 22 123 0.0 0.0 0.00 0.00 0.00 99 1014.5
20260902043124 22 123 0.0 0.0 0.00 0.00 0.00 99 1014.2
20260902042623 22 122 0.0 0.0 0.00 0.00 0.00 99 1014.4
20260902042119 22 123 0.0 0.0 0.00 0.00 0.00 99 1014.1
20260902041618 22 122 0.0 0.0 0.00 0.00 0.00 99 1014.0
20260902041113 22 123 0.0 0.0 0.00 0.00 0.00 99 1014.1
20260902040608 22 123 0.0 0.0 0.00 0.00 0.00 99 1014.1
20260902040103 22 124 0.0 0.0 0.00 0.00 0.00 99 1014.0
20260902035601 22 124 0.0 0.0 0.00 0.00 0.00 99 1014.0
20260902035057 22 123 0.0 0.0 0.00 0.00 0.00 99 1014.2
20260902034555 22 125 0.0 0.0 0.00 0.00 0.00 99 1014.0
20260902034054 22 123 0.0 0.0 0.00 0.00 0.00 99 1014.0
20260902033554 23 122 0.0 0.0 0.00 0.00 0.00 99 1014.2
20260902033049 23 122 0.0 0.0 0.00 0.00 0.00 99 1014.3
20260902032547 23 122 0.0 0.0 0.00 0.00 0.00 99 1014.3
20260902032043 23 121 0.0 0.0 0.00 0.00 0.00 99 1013.9
20260902031537 23 121 0.0 0.0 0.00 0.00 0.00 99 1014.3
20260902031034 23 122 0.0 0.0 0.00 0.00 0.00 99 1014.1
20260902030534 23 125 0.0 0.0 0.00 0.00 0.00 99 1014.2
20260902030034 23 122 0.0 0.0 0.00 0.00 0.00 99 1014.2
20260902025529 23 122 0.0 0.0 0.00 0.00 0.00 99 1014.0
20260902025024 23 122 0.0 0.0 0.00 0.00 0.00 99 1014.0
20260902024520 23 122 0.0 0.0 0.00 0.00 0.00 99 1014.1
20260902024020 23 124 0.0 0.0 0.00 0.00 0.00 99 1014.3
20260902023516 23 121 0.0 0.0 0.00 0.00 0.00 99 1014.2
20260902023016 23 120 0.0 0.0 0.00 0.00 0.00 99 1014.3
20260902022510 23 121 0.0 0.0 0.00 0.00 0.00 99 1014.4
20260902022006 23 118 1.6 3.2 0.00 0.00 0.00 99 1014.0
20260902021501 23 125 3.2 3.2 0.00 0.00 0.00 99 1013.9
20260902020956 23 130 3.2 4.8 0.00 0.00 0.00 99 1014.1
20260902020452 23 129 3.2 4.8 0.00 0.00 0.00 99 1014.0
20260902015948 23 127 1.6 3.2 0.00 0.00 0.00 99 1014.0
20260902015443 23 130 1.6 1.6 0.00 0.00 0.00 99 1014.2
20260902014938 24 131 1.6 1.6 0.00 0.00 0.00 99 1014.1
20260902014435 24 128 3.2 3.2 0.00 0.00 0.00 99 1013.9
20260902013934 24 127 3.2 3.2 0.00 0.00 0.00 99 1013.9
20260902013430 24 128 0.0 1.6 0.00 0.00 0.00 98 1013.6
20260902012925 24 123 0.0 0.0 0.00 0.00 0.00 98 1014.1
20260902012420 24 124 1.6 1.6 0.00 0.00 0.00 98 1013.9
20260902011916 24 124 1.6 1.6 0.00 0.00 0.00 98 1013.7
20260902011411 25 123 1.6 1.6 0.00 0.00 0.00 98 1013.8
20260902010910 25 128 0.0 0.0 0.00 0.00 0.00 97 1013.6
20260902010405 25 122 0.0 0.0 0.00 0.00 0.00 97 1013.8
20260902005905 25 124 1.6 1.6 0.00 0.00 0.00 97 1013.4
20260902005359 25 124 1.6 1.6 0.00 0.00 0.00 97 1013.6
20260902004855 25 124 1.6 1.6 0.00 0.00 0.00 96 1013.4
20260902004354 25 128 0.0 0.0 0.00 0.00 0.00 96 1013.3
20260902003849 25 126 0.0 0.0 0.00 0.00 0.00 95 1013.4
20260902003344 25 125 0.0 0.0 0.00 0.00 0.00 95 1013.4
20260902002840 25 124 0.0 0.0 0.00 0.00 0.00 94 1013.3
20260902002339 26 123 0.0 0.0 0.00 0.00 0.00 94 1013.6
20260902001834 26 123 0.0 0.0 0.00 0.00 0.00 93 1013.4
20260902001329 26 123 0.0 0.0 0.00 0.00 0.00 92 1013.4
20260902000824 26 123 1.6 1.6 0.00 0.00 0.00 93 1013.5
20260902000324 26 127 1.6 1.6 0.00 0.00 0.00 92 1013.3
20260901235820 26 125 1.6 3.2 0.00 0.00 0.00 91 1013.2
20260901235319 26 126 1.6 3.2 0.00 0.00 0.00 91 1013.3
20260901234814 26 127 1.6 1.6 0.00 0.00 0.00 89 1013.4
20260901234308 27 127 1.6 1.6 0.00 0.00 0.00 88 1013.3
20260901233804 27 127 1.6 1.6 0.00 0.00 0.00 88 1013.3
20260901233259 27 126 1.6 1.6 0.00 0.00 0.00 86 1013.1
20260901232754 27 126 1.6 1.6 0.00 0.00 0.00 86 1013.1
20260901232243 27 125 1.6 1.6 0.00 0.00 0.00 85 1013.2
20260901231740 28 126 0.0 0.0 0.00 0.00 0.00 84 1013.1
20260901231236 28 125 0.0 0.0 0.00 0.00 0.00 83 1013.0
20260901230731 28 125 0.0 1.6 0.00 0.00 0.00 81 1013.4
20260901230225 28 127 1.6 1.6 0.00 0.00 0.00 80 1013.3
20260901225720 28 127 1.6 1.6 0.00 0.00 0.00 78 1013.1
20260901225214 29 127 1.6 1.6 0.00 0.00 0.00 78 1013.2
20260901224711 30 126 1.6 3.2 0.00 0.00 0.00 76 1013.3
20260901224207 30 126 1.6 1.6 0.00 0.00 0.00 74 1013.3
20260901223702 30 125 4.8 8.0 0.00 0.00 0.00 73 1013.3
20260901223157 31 126 1.6 1.6 0.00 0.00 0.00 73 1013.2
20260901222653 31 125 3.2 3.2 0.00 0.00 0.00 71 1013.3
20260901222149 31 126 1.6 1.6 0.00 0.00 0.00 71 1013.2
20260901221645 32 131 3.2 3.2 0.00 0.00 0.00 71 1013.5
20260901221140 32 131 1.6 1.6 0.00 0.00 0.00 69 1013.3
20260901220639 33 130 1.6 1.6 0.00 0.00 0.00 68 1013.1
20260901220139 34 128 0.0 0.0 0.00 0.00 0.00 66 1013.3
20260901215637 33 127 0.0 0.0 0.00 0.00 0.00 64 1013.3
20260901215132 33 131 1.6 1.6 0.00 0.00 0.00 65 1013.4
20260901214631 33 126 0.0 0.0 0.00 0.00 0.00 67 1013.4
20260901214130 33 125 0.0 0.0 0.00 0.00 0.00 68 1013.6
20260901213625 33 131 0.0 0.0 0.00 0.00 0.00 65 1013.7
20260901213120 32 130 1.6 1.6 0.00 0.00 0.00 68 1013.8
20260901212619 31 132 0.0 0.0 0.00 0.00 0.00 70 1013.4
20260901212116 31 133 0.0 0.0 0.00 0.00 0.00 76 1013.6
20260901211610 31 129 0.0 0.0 0.00 0.00 0.00 77 1013.8
20260901211107 31 132 0.0 0.0 0.00 0.00 0.00 76 1013.8
20260901210602 32 132 0.0 0.0 0.00 0.00 0.00 75 1013.9
20260901210058 31 130 0.0 0.0 0.00 0.00 0.00 77 1013.9
20260901205553 31 130 0.0 0.0 0.00 0.00 0.00 75 1014.2
20260901205047 31 130 1.6 1.6 0.00 0.00 0.00 74 1013.7
20260901204544 31 130 1.6 1.6 0.00 0.00 0.00 74 1013.9
20260901204039 31 129 1.6 1.6 0.00 0.00 0.00 73 1014.2
20260901203539 31 128 0.0 0.0 0.00 0.00 0.00 74 1014.1
20260901203034 31 128 0.0 0.0 0.00 0.00 0.00 72 1014.1
20260901202529 32 128 0.0 0.0 0.00 0.00 0.00 72 1014.0
20260901202025 32 128 0.0 0.0 0.00 0.00 0.00 69 1014.1
20260901201520 33 128 0.0 0.0 0.00 0.00 0.00 68 1014.1
20260901201014 33 129 0.0 0.0 0.00 0.00 0.00 61 1014.3
20260901200509 33 128 0.0 0.0 0.00 0.00 0.00 60 1014.2
20260901200008 33 113 1.6 1.6 0.00 0.00 0.00 60 1014.4
20260901195506 33 118 3.2 3.2 0.00 0.00 0.00 61 1014.3
20260901195006 32 122 0.0 0.0 0.00 0.00 0.00 69 1014.4
20260901194501 32 108 1.6 1.6 0.00 0.00 0.00 65 1014.3
20260901193957 32 127 0.0 0.0 0.00 0.00 0.00 63 1014.5
20260901193456 32 124 1.6 1.6 0.00 0.00 0.00 64 1014.4
20260901192956 33 132 3.2 4.8 0.00 0.00 0.00 63 1014.4
20260901192452 33 122 0.0 0.0 0.00 0.00 0.00 63 1014.4
20260901191948 33 114 0.0 1.6 0.00 0.00 0.00 62 1014.6
20260901191446 33 109 3.2 3.2 0.00 0.00 0.00 61 1014.6
20260901190939 33 117 0.0 0.0 0.00 0.00 0.00 60 1014.6
20260901190434 33 117 8.0 9.7 0.00 0.00 0.00 59 1014.7
20260901185932 33 130 4.8 8.0 0.00 0.00 0.00 61 1014.7
20260901185432 33 112 0.0 1.6 0.00 0.00 0.00 62 1014.8
20260901184926 33 112 0.0 0.0 0.00 0.00 0.00 61 1014.7
20260901184421 33 121 0.0 1.6 0.00 0.00 0.00 61 1014.6
20260901183917 33 128 1.6 3.2 0.00 0.00 0.00 60 1015.0
20260901183416 34 125 0.0 0.0 0.00 0.00 0.00 52 1014.8
20260901182912 34 122 0.0 0.0 0.00 0.00 0.00 58 1014.9
20260901182407 33 120 0.0 0.0 0.00 0.00 0.00 57 1015.0
20260901181902 33 119 0.0 0.0 0.00 0.00 0.00 56 1015.1
20260901181357 33 109 4.8 4.8 0.00 0.00 0.00 56 1014.9
20260901180856 34 113 0.0 0.0 0.00 0.00 0.00 54 1015.1
20260901180355 34 99 0.0 0.0 0.00 0.00 0.00 56 1015.1
20260901175853 33 331 3.2 8.0 0.00 0.00 0.00 57 1015.1
20260901175348 34 259 4.8 8.0 0.00 0.00 0.00 55 1015.3
20260901174844 33 81 3.2 3.2 0.00 0.00 0.00 55 1015.2
20260901174339 33 150 4.8 9.7 0.00 0.00 0.00 53 1015.4
20260901173835 33 134 4.8 4.8 0.00 0.00 0.00 57 1015.4
20260901173329 33 336 6.4 8.0 0.00 0.00 0.00 58 1015.8
20260901172826 32 131 3.2 3.2 0.00 0.00 0.00 63 1015.7
20260901172325 32 111 0.0 0.0 0.00 0.00 0.00 65 1015.8
20260901171823 32 115 0.0 1.6 0.00 0.00 0.00 65 1015.9
20260901171323 32 82 3.2 3.2 0.00 0.00 0.00 63 1015.8
20260901170822 33 80 4.8 8.0 0.00 0.00 0.00 63 1015.9
20260901170317 33 124 0.0 1.6 0.00 0.00 0.00 65 1016.0
20260901165816 32 117 1.6 1.6 0.00 0.00 0.00 64 1015.9
20260901165310 33 121 3.2 4.8 0.00 0.00 0.00 63 1015.9
20260901164807 32 134 3.2 3.2 0.00 0.00 0.00 66 1015.8
20260901164302 32 118 6.4 8.0 0.00 0.00 0.00 65 1016.1
20260901163757 32 132 4.8 8.0 0.00 0.00 0.00 68 1015.7
20260901163257 33 117 11.3 11.3 0.00 0.00 0.00 67 1015.8
20260901162752 32 122 0.0 0.0 0.00 0.00 0.00 67 1015.8
20260901162251 32 117 3.2 4.8 0.00 0.00 0.00 67 1015.9
20260901161750 32 120 6.4 8.0 0.00 0.00 0.00 68 1015.8
20260901161244 32 116 3.2 3.2 0.00 0.00 0.00 68 1016.0
20260901160741 31 103 3.2 3.2 0.00 0.00 0.00 69 1015.9
20260901160236 31 129 4.8 4.8 0.00 0.00 0.00 71 1015.8
20260901155735 31 128 3.2 3.2 0.00 0.00 0.00 72 1016.0
20260901155230 31 118 4.8 4.8 0.00 0.00 0.00 71 1015.9
20260901154725 31 135 1.6 1.6 0.00 0.00 0.00 73 1016.1
20260901154220 31 117 1.6 1.6 0.00 0.00 0.00 76 1015.9
20260901153716 31 110 3.2 3.2 0.00 0.00 0.00 73 1015.9
20260901153209 31 145 1.6 4.8 0.00 0.00 0.00 74 1016.1
20260901152704 31 148 4.8 4.8 0.00 0.00 0.00 73 1016.1
20260901152203 30 120 1.6 1.6 0.00 0.00 0.00 75 1016.3
20260901151659 30 127 4.8 8.0 0.00 0.00 0.00 75 1016.0
20260901151158 31 115 8.0 11.3 0.00 0.00 0.00 72 1016.3
20260901150657 30 118 6.4 8.0 0.00 0.00 0.00 73 1016.0
20260901150155 30 118 1.6 1.6 0.00 0.00 0.00 78 1016.1
20260901145654 30 119 0.0 0.0 0.00 0.00 0.00 82 1016.2
20260901145154 30 130 1.6 3.2 0.00 0.00 0.00 80 1016.1
20260901144649 30 126 0.0 0.0 0.00 0.00 0.00 82 1016.1
20260901144144 29 122 0.0 0.0 0.00 0.00 0.00 81 1016.2
20260901143639 29 107 0.0 0.0 0.00 0.00 0.00 83 1016.4
20260901143136 29 104 1.6 3.2 0.00 0.00 0.00 85 1016.3
20260901142632 28 122 0.0 0.0 0.00 0.00 0.00 90 1016.2
20260901142131 28 117 0.0 1.6 0.00 0.00 0.00 89 1016.2
20260901141626 28 110 0.0 0.0 0.00 0.00 0.00 91 1016.3
20260901141120 28 114 1.6 1.6 0.00 0.00 0.00 90 1016.1
20260901140619 27 114 4.8 4.8 0.00 0.00 0.00 86 1016.2
20260901140118 27 119 6.4 9.7 0.00 0.00 0.00 87 1016.1
20260901135618 27 109 0.0 0.0 0.00 0.00 0.00 95 1016.2
20260901135113 26 117 1.6 1.6 0.00 0.00 0.00 96 1016.2
20260901134610 26 112 1.6 1.6 0.00 0.00 0.00 96 1016.3
20260901134104 26 110 1.6 3.2 0.00 0.00 0.00 97 1016.2
20260901133603 25 112 1.6 1.6 0.00 0.00 0.00 97 1016.1
20260901133102 25 97 1.6 3.2 0.00 0.00 0.00 99 1016.1
20260901132556 25 117 0.0 0.0 0.00 0.00 0.00 99 1016.3
20260901132051 25 115 0.0 0.0 0.00 0.00 0.00 99 1016.3
20260901131551 24 115 0.0 0.0 0.00 0.00 0.00 99 1016.3
20260901131045 23 114 0.0 0.0 0.00 0.00 0.00 99 1016.2
20260901130540 23 114 0.0 0.0 0.00 0.00 0.00 99 1016.3
20260901130039 23 116 0.0 0.0 0.00 0.00 0.00 99 1016.2
20260901125537 22 117 0.0 0.0 0.00 0.00 0.00 99 1016.1
20260901125033 22 121 0.0 0.0 0.00 0.00 0.00 99 1016.1
20260901124532 22 123 0.0 0.0 0.00 0.00 0.00 99 1016.4
20260901124027 22 122 0.0 0.0 0.00 0.00 0.00 99 1016.4
20260901123522 22 122 0.0 0.0 0.00 0.00 0.00 99 1016.3
20260901123021 21 123 0.0 0.0 0.00 0.00 0.00 99 1016.2
20260901122520 21 124 0.0 0.0 0.00 0.00 0.00 99 1016.5
20260901122014 21 124 0.0 0.0 0.00 0.00 0.00 99 1016.6
20260901121509 21 123 0.0 0.0 0.00 0.00 0.00 99 1016.1
20260901121004 21 122 0.0 0.0 0.00 0.00 0.00 99 1016.4
20260901120504 21 123 0.0 0.0 0.00 0.00 0.00 99 1016.3
20260901115959 21 122 0.0 0.0 0.00 0.00 0.00 99 1016.2
20260901115454 21 124 0.0 0.0 0.00 0.00 0.00 99 1016.2
20260901114952 20 122 0.0 0.0 0.00 0.00 0.00 99 1016.3
20260901114447 20 122 0.0 0.0 0.00 0.00 0.00 99 1016.1
20260901113945 20 122 0.0 0.0 0.00 0.00 0.00 99 1015.9
20260901113444 20 121 0.0 0.0 0.00 0.00 0.00 99 1015.9
20260901112939 20 122 0.0 0.0 0.00 0.00 0.00 99 1015.9
20260901112435 20 122 0.0 0.0 0.00 0.00 0.00 99 1016.0
20260901111924 20 122 0.0 0.0 0.00 0.00 0.00 99 1015.9
20260901111422 20 122 0.0 0.0 0.00 0.00 0.00 99 1015.7
20260901110921 20 123 0.0 0.0 0.00 0.00 0.00 99 1015.8
20260901110417 20 120 0.0 0.0 0.00 0.00 0.00 99 1015.3
20260901105913 20 123 0.0 0.0 0.00 0.00 0.00 99 1015.3
20260901105408 20 122 0.0 0.0 0.00 0.00 0.00 99 1015.5
20260901104904 20 122 0.0 0.0 0.00 0.00 0.00 99 1015.4
20260901104359 20 123 0.0 0.0 0.00 0.00 0.00 99 1015.4